Location: Fontevrault
(47.1823°N, 0.0493°E)
Time: 13:00:39
(UTC+00:00)

Cosmos 1452 Rocket - Pass Details

Date: 16 June 2021
Orbit: 768 x 774 km, 74.1° (Epoch: 30 July)

Event Time Altitude Azimuth Distance (km) Brightness Sun altitude
Rises 20:54:02 0° 191° (S) 3,236 6.4 -7.9°
Reaches altitude 10° 20:56:25 10° 188° (S) 2,313 5.6 -8.2°
Maximum altitude 21:01:37 64° 108° (ESE) 858 3.5 -8.7°
Drops below altitude 10° 21:06:50 10° 28° (NNE) 2,328 6.3 -9.3°
Sets 21:09:14 0° 25° (NNE) 3,258 7.1 -9.6°
